Index of /20260506/WXO-DD/model_caps/3km/12/032
Name Last modified Size Description
Parent Directory -
20260506T12Z_MSC_CAPS_AbsoluteVorticity_IsbL-0250_RLatLon0.03_PT032H.grib2 2026-05-06 18:21 901K
20260506T12Z_MSC_CAPS_AbsoluteVorticity_IsbL-0500_RLatLon0.03_PT032H.grib2 2026-05-06 18:21 1.1M
20260506T12Z_MSC_CAPS_AbsoluteVorticity_IsbL-0700_RLatLon0.03_PT032H.grib2 2026-05-06 18:21 1.3M
20260506T12Z_MSC_CAPS_AbsoluteVorticity_IsbL-0850_RLatLon0.03_PT032H.grib2 2026-05-06 18:21 1.5M
20260506T12Z_MSC_CAPS_AbsoluteVorticity_IsbL-1000_RLatLon0.03_PT032H.grib2 2026-05-06 18:21 1.6M
20260506T12Z_MSC_CAPS_AirDensity_AGL-120m_RLatLon0.03_PT032H.grib2 2026-05-06 18:21 1.4M
20260506T12Z_MSC_CAPS_AirDensity_AGL-40m_RLatLon0.03_PT032H.grib2 2026-05-06 18:21 1.4M
20260506T12Z_MSC_CAPS_AirDensity_AGL-80m_RLatLon0.03_PT032H.grib2 2026-05-06 18:21 1.4M
20260506T12Z_MSC_CAPS_AirTemp_AGL-120m_RLatLon0.03_PT032H.grib2 2026-05-06 18:21 1.4M
20260506T12Z_MSC_CAPS_AirTemp_AGL-2m_RLatLon0.03_PT032H.grib2 2026-05-06 18:21 1.7M
20260506T12Z_MSC_CAPS_AirTemp_AGL-40m_RLatLon0.03_PT032H.grib2 2026-05-06 18:21 1.5M
20260506T12Z_MSC_CAPS_AirTemp_AGL-80m_RLatLon0.03_PT032H.grib2 2026-05-06 18:21 1.4M
20260506T12Z_MSC_CAPS_AirTemp_IsbL-0050_RLatLon0.03_PT032H.grib2 2026-05-06 18:21 683K
20260506T12Z_MSC_CAPS_AirTemp_IsbL-0100_RLatLon0.03_PT032H.grib2 2026-05-06 18:21 944K
20260506T12Z_MSC_CAPS_AirTemp_IsbL-0150_RLatLon0.03_PT032H.grib2 2026-05-06 18:21 751K
20260506T12Z_MSC_CAPS_AirTemp_IsbL-0175_RLatLon0.03_PT032H.grib2 2026-05-06 18:21 778K
20260506T12Z_MSC_CAPS_AirTemp_IsbL-0200_RLatLon0.03_PT032H.grib2 2026-05-06 18:21 799K
20260506T12Z_MSC_CAPS_AirTemp_IsbL-0225_RLatLon0.03_PT032H.grib2 2026-05-06 18:21 796K
20260506T12Z_MSC_CAPS_AirTemp_IsbL-0250_RLatLon0.03_PT032H.grib2 2026-05-06 18:21 1.0M
20260506T12Z_MSC_CAPS_AirTemp_IsbL-0275_RLatLon0.03_PT032H.grib2 2026-05-06 18:21 1.0M
20260506T12Z_MSC_CAPS_AirTemp_IsbL-0300_RLatLon0.03_PT032H.grib2 2026-05-06 18:21 1.0M
20260506T12Z_MSC_CAPS_AirTemp_IsbL-0350_RLatLon0.03_PT032H.grib2 2026-05-06 18:21 750K
20260506T12Z_MSC_CAPS_AirTemp_IsbL-0400_RLatLon0.03_PT032H.grib2 2026-05-06 18:21 751K
20260506T12Z_MSC_CAPS_AirTemp_IsbL-0450_RLatLon0.03_PT032H.grib2 2026-05-06 18:21 769K
20260506T12Z_MSC_CAPS_AirTemp_IsbL-0500_RLatLon0.03_PT032H.grib2 2026-05-06 18:21 783K
20260506T12Z_MSC_CAPS_AirTemp_IsbL-0550_RLatLon0.03_PT032H.grib2 2026-05-06 18:21 946K
20260506T12Z_MSC_CAPS_AirTemp_IsbL-0600_RLatLon0.03_PT032H.grib2 2026-05-06 18:21 962K
20260506T12Z_MSC_CAPS_AirTemp_IsbL-0650_RLatLon0.03_PT032H.grib2 2026-05-06 18:21 1.0M
20260506T12Z_MSC_CAPS_AirTemp_IsbL-0700_RLatLon0.03_PT032H.grib2 2026-05-06 18:21 873K
20260506T12Z_MSC_CAPS_AirTemp_IsbL-0750_RLatLon0.03_PT032H.grib2 2026-05-06 18:21 906K
20260506T12Z_MSC_CAPS_AirTemp_IsbL-0800_RLatLon0.03_PT032H.grib2 2026-05-06 18:21 936K
20260506T12Z_MSC_CAPS_AirTemp_IsbL-0850_RLatLon0.03_PT032H.grib2 2026-05-06 18:21 1.1M
20260506T12Z_MSC_CAPS_AirTemp_IsbL-0875_RLatLon0.03_PT032H.grib2 2026-05-06 18:21 1.1M
20260506T12Z_MSC_CAPS_AirTemp_IsbL-0900_RLatLon0.03_PT032H.grib2 2026-05-06 18:21 1.1M
20260506T12Z_MSC_CAPS_AirTemp_IsbL-0925_RLatLon0.03_PT032H.grib2 2026-05-06 18:21 1.1M
20260506T12Z_MSC_CAPS_AirTemp_IsbL-0950_RLatLon0.03_PT032H.grib2 2026-05-06 18:21 1.1M
20260506T12Z_MSC_CAPS_AirTemp_IsbL-0970_RLatLon0.03_PT032H.grib2 2026-05-06 18:21 1.1M
20260506T12Z_MSC_CAPS_AirTemp_IsbL-0985_RLatLon0.03_PT032H.grib2 2026-05-06 18:21 1.0M
20260506T12Z_MSC_CAPS_AirTemp_IsbL-1000_RLatLon0.03_PT032H.grib2 2026-05-06 18:21 1.0M
20260506T12Z_MSC_CAPS_AirTemp_IsbL-1015_RLatLon0.03_PT032H.grib2 2026-05-06 18:21 1.1M
20260506T12Z_MSC_CAPS_Albedo_Sfc_RLatLon0.03_PT032H.grib2 2026-05-06 18:21 2.7M
20260506T12Z_MSC_CAPS_CAPE_Sfc_RLatLon0.03_PT032H.grib2 2026-05-06 18:21 270K
20260506T12Z_MSC_CAPS_CloudWater_EAtm_RLatLon0.03_PT032H.grib2 2026-05-06 18:21 1.6M
20260506T12Z_MSC_CAPS_ConvectivePrecip-Accum_Sfc_RLatLon0.03_PT032H.grib2 2026-05-06 18:21 4.5M
20260506T12Z_MSC_CAPS_DewPointDepression_AGL-120m_RLatLon0.03_PT032H.grib2 2026-05-06 18:21 2.2M
20260506T12Z_MSC_CAPS_DewPointDepression_AGL-2m_RLatLon0.03_PT032H.grib2 2026-05-06 18:21 2.2M
20260506T12Z_MSC_CAPS_DewPointDepression_AGL-40m_RLatLon0.03_PT032H.grib2 2026-05-06 18:21 2.2M
20260506T12Z_MSC_CAPS_DewPointDepression_AGL-80m_RLatLon0.03_PT032H.grib2 2026-05-06 18:21 2.2M
20260506T12Z_MSC_CAPS_DewPointDepression_IsbL-0050_RLatLon0.03_PT032H.grib2 2026-05-06 18:21 4.6K
20260506T12Z_MSC_CAPS_DewPointDepression_IsbL-0100_RLatLon0.03_PT032H.grib2 2026-05-06 18:21 49K
20260506T12Z_MSC_CAPS_DewPointDepression_IsbL-0150_RLatLon0.03_PT032H.grib2 2026-05-06 18:21 83K
20260506T12Z_MSC_CAPS_DewPointDepression_IsbL-0175_RLatLon0.03_PT032H.grib2 2026-05-06 18:21 220K
20260506T12Z_MSC_CAPS_DewPointDepression_IsbL-0200_RLatLon0.03_PT032H.grib2 2026-05-06 18:21 397K
20260506T12Z_MSC_CAPS_DewPointDepression_IsbL-0225_RLatLon0.03_PT032H.grib2 2026-05-06 18:21 585K
20260506T12Z_MSC_CAPS_DewPointDepression_IsbL-0250_RLatLon0.03_PT032H.grib2 2026-05-06 18:21 860K
20260506T12Z_MSC_CAPS_DewPointDepression_IsbL-0275_RLatLon0.03_PT032H.grib2 2026-05-06 18:21 1.0M
20260506T12Z_MSC_CAPS_DewPointDepression_IsbL-0300_RLatLon0.03_PT032H.grib2 2026-05-06 18:21 1.1M
20260506T12Z_MSC_CAPS_DewPointDepression_IsbL-0350_RLatLon0.03_PT032H.grib2 2026-05-06 18:21 1.1M
20260506T12Z_MSC_CAPS_DewPointDepression_IsbL-0400_RLatLon0.03_PT032H.grib2 2026-05-06 18:21 1.1M
20260506T12Z_MSC_CAPS_DewPointDepression_IsbL-0450_RLatLon0.03_PT032H.grib2 2026-05-06 18:21 1.2M
20260506T12Z_MSC_CAPS_DewPointDepression_IsbL-0500_RLatLon0.03_PT032H.grib2 2026-05-06 18:21 1.2M
20260506T12Z_MSC_CAPS_DewPointDepression_IsbL-0550_RLatLon0.03_PT032H.grib2 2026-05-06 18:21 1.2M
20260506T12Z_MSC_CAPS_DewPointDepression_IsbL-0600_RLatLon0.03_PT032H.grib2 2026-05-06 18:21 1.3M
20260506T12Z_MSC_CAPS_DewPointDepression_IsbL-0650_RLatLon0.03_PT032H.grib2 2026-05-06 18:21 1.3M
20260506T12Z_MSC_CAPS_DewPointDepression_IsbL-0700_RLatLon0.03_PT032H.grib2 2026-05-06 18:21 1.3M
20260506T12Z_MSC_CAPS_DewPointDepression_IsbL-0750_RLatLon0.03_PT032H.grib2 2026-05-06 18:21 1.4M
20260506T12Z_MSC_CAPS_DewPointDepression_IsbL-0800_RLatLon0.03_PT032H.grib2 2026-05-06 18:21 1.4M
20260506T12Z_MSC_CAPS_DewPointDepression_IsbL-0850_RLatLon0.03_PT032H.grib2 2026-05-06 18:21 1.4M
20260506T12Z_MSC_CAPS_DewPointDepression_IsbL-0875_RLatLon0.03_PT032H.grib2 2026-05-06 18:21 1.4M
20260506T12Z_MSC_CAPS_DewPointDepression_IsbL-0900_RLatLon0.03_PT032H.grib2 2026-05-06 18:21 1.4M
20260506T12Z_MSC_CAPS_DewPointDepression_IsbL-0925_RLatLon0.03_PT032H.grib2 2026-05-06 18:21 1.4M
20260506T12Z_MSC_CAPS_DewPointDepression_IsbL-0950_RLatLon0.03_PT032H.grib2 2026-05-06 18:21 1.4M
20260506T12Z_MSC_CAPS_DewPointDepression_IsbL-0970_RLatLon0.03_PT032H.grib2 2026-05-06 18:21 1.4M
20260506T12Z_MSC_CAPS_DewPointDepression_IsbL-0985_RLatLon0.03_PT032H.grib2 2026-05-06 18:21 1.4M
20260506T12Z_MSC_CAPS_DewPointDepression_IsbL-1000_RLatLon0.03_PT032H.grib2 2026-05-06 18:21 1.4M
20260506T12Z_MSC_CAPS_DewPointDepression_IsbL-1015_RLatLon0.03_PT032H.grib2 2026-05-06 18:21 1.4M
20260506T12Z_MSC_CAPS_DewPoint_AGL-120m_RLatLon0.03_PT032H.grib2 2026-05-06 18:21 3.8M
20260506T12Z_MSC_CAPS_DewPoint_AGL-2m_RLatLon0.03_PT032H.grib2 2026-05-06 18:21 2.2M
20260506T12Z_MSC_CAPS_DewPoint_AGL-40m_RLatLon0.03_PT032H.grib2 2026-05-06 18:21 3.8M
20260506T12Z_MSC_CAPS_DewPoint_AGL-80m_RLatLon0.03_PT032H.grib2 2026-05-06 18:21 3.8M
20260506T12Z_MSC_CAPS_DownwardLongwaveRadiationFlux-Accum_Sfc_RLatLon0.03_PT032H.grib2 2026-05-06 18:21 2.6M
20260506T12Z_MSC_CAPS_DownwardShortwaveRadiationFlux-Accum_NTAtm_RLatLon0.03_PT032H.grib2 2026-05-06 18:21 418K
20260506T12Z_MSC_CAPS_DownwardShortwaveRadiationFlux-Accum_Sfc_RLatLon0.03_PT032H.grib2 2026-05-06 18:21 2.9M
20260506T12Z_MSC_CAPS_FreezingRain-Accum_Sfc_RLatLon0.03_PT032H.grib2 2026-05-06 18:21 919K
20260506T12Z_MSC_CAPS_GeopotentialHeight_IsbL-0050_RLatLon0.03_PT032H.grib2 2026-05-06 18:21 822K
20260506T12Z_MSC_CAPS_GeopotentialHeight_IsbL-0100_RLatLon0.03_PT032H.grib2 2026-05-06 18:21 810K
20260506T12Z_MSC_CAPS_GeopotentialHeight_IsbL-0150_RLatLon0.03_PT032H.grib2 2026-05-06 18:21 597K
20260506T12Z_MSC_CAPS_GeopotentialHeight_IsbL-0175_RLatLon0.03_PT032H.grib2 2026-05-06 18:21 711K
20260506T12Z_MSC_CAPS_GeopotentialHeight_IsbL-0200_RLatLon0.03_PT032H.grib2 2026-05-06 18:21 738K
20260506T12Z_MSC_CAPS_GeopotentialHeight_IsbL-0225_RLatLon0.03_PT032H.grib2 2026-05-06 18:21 751K
20260506T12Z_MSC_CAPS_GeopotentialHeight_IsbL-0250_RLatLon0.03_PT032H.grib2 2026-05-06 18:21 760K
20260506T12Z_MSC_CAPS_GeopotentialHeight_IsbL-0275_RLatLon0.03_PT032H.grib2 2026-05-06 18:21 771K
20260506T12Z_MSC_CAPS_GeopotentialHeight_IsbL-0300_RLatLon0.03_PT032H.grib2 2026-05-06 18:21 772K
20260506T12Z_MSC_CAPS_GeopotentialHeight_IsbL-0350_RLatLon0.03_PT032H.grib2 2026-05-06 18:21 775K
20260506T12Z_MSC_CAPS_GeopotentialHeight_IsbL-0400_RLatLon0.03_PT032H.grib2 2026-05-06 18:21 770K
20260506T12Z_MSC_CAPS_GeopotentialHeight_IsbL-0450_RLatLon0.03_PT032H.grib2 2026-05-06 18:21 764K
20260506T12Z_MSC_CAPS_GeopotentialHeight_IsbL-0500_RLatLon0.03_PT032H.grib2 2026-05-06 18:21 757K
20260506T12Z_MSC_CAPS_GeopotentialHeight_IsbL-0550_RLatLon0.03_PT032H.grib2 2026-05-06 18:21 636K
20260506T12Z_MSC_CAPS_GeopotentialHeight_IsbL-0600_RLatLon0.03_PT032H.grib2 2026-05-06 18:21 628K
20260506T12Z_MSC_CAPS_GeopotentialHeight_IsbL-0650_RLatLon0.03_PT032H.grib2 2026-05-06 18:21 622K
20260506T12Z_MSC_CAPS_GeopotentialHeight_IsbL-0700_RLatLon0.03_PT032H.grib2 2026-05-06 18:21 619K
20260506T12Z_MSC_CAPS_GeopotentialHeight_IsbL-0750_RLatLon0.03_PT032H.grib2 2026-05-06 18:21 621K
20260506T12Z_MSC_CAPS_GeopotentialHeight_IsbL-0800_RLatLon0.03_PT032H.grib2 2026-05-06 18:21 802K
20260506T12Z_MSC_CAPS_GeopotentialHeight_IsbL-0850_RLatLon0.03_PT032H.grib2 2026-05-06 18:21 809K
20260506T12Z_MSC_CAPS_GeopotentialHeight_IsbL-0875_RLatLon0.03_PT032H.grib2 2026-05-06 18:21 817K
20260506T12Z_MSC_CAPS_GeopotentialHeight_IsbL-0900_RLatLon0.03_PT032H.grib2 2026-05-06 18:21 823K
20260506T12Z_MSC_CAPS_GeopotentialHeight_IsbL-0925_RLatLon0.03_PT032H.grib2 2026-05-06 18:21 834K
20260506T12Z_MSC_CAPS_GeopotentialHeight_IsbL-0950_RLatLon0.03_PT032H.grib2 2026-05-06 18:21 840K
20260506T12Z_MSC_CAPS_GeopotentialHeight_IsbL-0970_RLatLon0.03_PT032H.grib2 2026-05-06 18:21 852K
20260506T12Z_MSC_CAPS_GeopotentialHeight_IsbL-0985_RLatLon0.03_PT032H.grib2 2026-05-06 18:21 860K
20260506T12Z_MSC_CAPS_GeopotentialHeight_IsbL-1000_RLatLon0.03_PT032H.grib2 2026-05-06 18:21 871K
20260506T12Z_MSC_CAPS_GeopotentialHeight_IsbL-1015_RLatLon0.03_PT032H.grib2 2026-05-06 18:21 880K
20260506T12Z_MSC_CAPS_GeopotentialHeight_Sfc_RLatLon0.03_PT032H.grib2 2026-05-06 18:21 1.0M
20260506T12Z_MSC_CAPS_IcePellets-Accum_Sfc_RLatLon0.03_PT032H.grib2 2026-05-06 18:21 30K
20260506T12Z_MSC_CAPS_LatentHeatNetFlux_Sfc_RLatLon0.03_PT032H.grib2 2026-05-06 18:21 2.0M
20260506T12Z_MSC_CAPS_LiftedIndex-MU-VT_IsbL-0500_RLatLon0.03_PT032H.grib2 2026-05-06 18:21 3.3M
20260506T12Z_MSC_CAPS_MixedLayerThickness_Sfc_RLatLon0.03_PT032H.nc 2026-05-06 18:13 17M
20260506T12Z_MSC_CAPS_NetLongwaveRadiationFlux-Accum_Sfc_RLatLon0.03_PT032H.grib2 2026-05-06 18:21 2.8M
20260506T12Z_MSC_CAPS_NetShortwaveRadiationFlux-Accum_Sfc_RLatLon0.03_PT032H.grib2 2026-05-06 18:21 2.8M
20260506T12Z_MSC_CAPS_PlanetaryBoundaryLayerHeight_Sfc_RLatLon0.03_PT032H.grib2 2026-05-06 18:21 3.1M
20260506T12Z_MSC_CAPS_Precip-Accum_Sfc_RLatLon0.03_PT032H.grib2 2026-05-06 18:21 5.3M
20260506T12Z_MSC_CAPS_PrecipRate_Sfc_RLatLon0.03_PT032H.grib2 2026-05-06 18:21 335K
20260506T12Z_MSC_CAPS_PrecipType-Instant_Sfc_RLatLon0.03_PT032H.grib2 2026-05-06 18:21 2.1M
20260506T12Z_MSC_CAPS_Pressure_MSL_RLatLon0.03_PT032H.grib2 2026-05-06 18:21 758K
20260506T12Z_MSC_CAPS_Pressure_Sfc_RLatLon0.03_PT032H.grib2 2026-05-06 18:21 1.2M
20260506T12Z_MSC_CAPS_RadiativeTemp_Sfc_RLatLon0.03_PT032H.grib2 2026-05-06 18:21 2.1M
20260506T12Z_MSC_CAPS_Rain-Accum_Sfc_RLatLon0.03_PT032H.grib2 2026-05-06 18:21 2.6M
20260506T12Z_MSC_CAPS_RelativeHumidity_AGL-120m_RLatLon0.03_PT032H.grib2 2026-05-06 18:21 2.9M
20260506T12Z_MSC_CAPS_RelativeHumidity_AGL-2m_RLatLon0.03_PT032H.grib2 2026-05-06 18:21 3.0M
20260506T12Z_MSC_CAPS_RelativeHumidity_AGL-40m_RLatLon0.03_PT032H.grib2 2026-05-06 18:21 3.0M
20260506T12Z_MSC_CAPS_RelativeHumidity_AGL-80m_RLatLon0.03_PT032H.grib2 2026-05-06 18:21 2.9M
20260506T12Z_MSC_CAPS_RelativeHumidity_IsbL-0050_RLatLon0.03_PT032H.grib2 2026-05-06 18:21 719K
20260506T12Z_MSC_CAPS_RelativeHumidity_IsbL-0100_RLatLon0.03_PT032H.grib2 2026-05-06 18:21 1.1M
20260506T12Z_MSC_CAPS_RelativeHumidity_IsbL-0150_RLatLon0.03_PT032H.grib2 2026-05-06 18:21 719K
20260506T12Z_MSC_CAPS_RelativeHumidity_IsbL-0175_RLatLon0.03_PT032H.grib2 2026-05-06 18:21 472K
20260506T12Z_MSC_CAPS_RelativeHumidity_IsbL-0200_RLatLon0.03_PT032H.grib2 2026-05-06 18:21 698K
20260506T12Z_MSC_CAPS_RelativeHumidity_IsbL-0225_RLatLon0.03_PT032H.grib2 2026-05-06 18:21 912K
20260506T12Z_MSC_CAPS_RelativeHumidity_IsbL-0250_RLatLon0.03_PT032H.grib2 2026-05-06 18:21 1.1M
20260506T12Z_MSC_CAPS_RelativeHumidity_IsbL-0275_RLatLon0.03_PT032H.grib2 2026-05-06 18:21 1.4M
20260506T12Z_MSC_CAPS_RelativeHumidity_IsbL-0300_RLatLon0.03_PT032H.grib2 2026-05-06 18:21 1.7M
20260506T12Z_MSC_CAPS_RelativeHumidity_IsbL-0350_RLatLon0.03_PT032H.grib2 2026-05-06 18:21 2.0M
20260506T12Z_MSC_CAPS_RelativeHumidity_IsbL-0400_RLatLon0.03_PT032H.grib2 2026-05-06 18:21 2.1M
20260506T12Z_MSC_CAPS_RelativeHumidity_IsbL-0450_RLatLon0.03_PT032H.grib2 2026-05-06 18:21 2.0M
20260506T12Z_MSC_CAPS_RelativeHumidity_IsbL-0500_RLatLon0.03_PT032H.grib2 2026-05-06 18:21 2.2M
20260506T12Z_MSC_CAPS_RelativeHumidity_IsbL-0550_RLatLon0.03_PT032H.grib2 2026-05-06 18:21 2.2M
20260506T12Z_MSC_CAPS_RelativeHumidity_IsbL-0600_RLatLon0.03_PT032H.grib2 2026-05-06 18:21 2.3M
20260506T12Z_MSC_CAPS_RelativeHumidity_IsbL-0650_RLatLon0.03_PT032H.grib2 2026-05-06 18:21 2.3M
20260506T12Z_MSC_CAPS_RelativeHumidity_IsbL-0700_RLatLon0.03_PT032H.grib2 2026-05-06 18:21 2.3M
20260506T12Z_MSC_CAPS_RelativeHumidity_IsbL-0750_RLatLon0.03_PT032H.grib2 2026-05-06 18:21 2.4M
20260506T12Z_MSC_CAPS_RelativeHumidity_IsbL-0800_RLatLon0.03_PT032H.grib2 2026-05-06 18:21 2.6M
20260506T12Z_MSC_CAPS_RelativeHumidity_IsbL-0850_RLatLon0.03_PT032H.grib2 2026-05-06 18:21 2.7M
20260506T12Z_MSC_CAPS_RelativeHumidity_IsbL-0875_RLatLon0.03_PT032H.grib2 2026-05-06 18:21 2.7M
20260506T12Z_MSC_CAPS_RelativeHumidity_IsbL-0900_RLatLon0.03_PT032H.grib2 2026-05-06 18:21 2.7M
20260506T12Z_MSC_CAPS_RelativeHumidity_IsbL-0925_RLatLon0.03_PT032H.grib2 2026-05-06 18:21 2.8M
20260506T12Z_MSC_CAPS_RelativeHumidity_IsbL-0950_RLatLon0.03_PT032H.grib2 2026-05-06 18:21 2.8M
20260506T12Z_MSC_CAPS_RelativeHumidity_IsbL-0970_RLatLon0.03_PT032H.grib2 2026-05-06 18:21 2.9M
20260506T12Z_MSC_CAPS_RelativeHumidity_IsbL-0985_RLatLon0.03_PT032H.grib2 2026-05-06 18:21 2.9M
20260506T12Z_MSC_CAPS_RelativeHumidity_IsbL-1000_RLatLon0.03_PT032H.grib2 2026-05-06 18:21 3.0M
20260506T12Z_MSC_CAPS_RelativeHumidity_IsbL-1015_RLatLon0.03_PT032H.grib2 2026-05-06 18:21 3.0M
20260506T12Z_MSC_CAPS_Runoff-Accum_Sfc_RLatLon0.03_PT032H.grib2 2026-05-06 18:21 294K
20260506T12Z_MSC_CAPS_SeaIceAreaFraction_Sfc_RLatLon0.03_PT032H.nc 2026-05-06 18:13 15M
20260506T12Z_MSC_CAPS_SeaIceCompressiveStrength_Sfc_RLatLon0.03_PT032H.nc 2026-05-06 18:13 15M
20260506T12Z_MSC_CAPS_SeaIceDivergence_Sfc_RLatLon0.03_PT032H.nc 2026-05-06 18:13 15M
20260506T12Z_MSC_CAPS_SeaIceInternalPressure_Sfc_RLatLon0.03_PT032H.nc 2026-05-06 18:13 15M
20260506T12Z_MSC_CAPS_SeaIceShear_Sfc_RLatLon0.03_PT032H.nc 2026-05-06 18:13 15M
20260506T12Z_MSC_CAPS_SeaIceSnowTemp_Sfc_RLatLon0.03_PT032H.nc 2026-05-06 18:13 14M
20260506T12Z_MSC_CAPS_SeaIceSnowVolume_Sfc_RLatLon0.03_PT032H.nc 2026-05-06 18:13 15M
20260506T12Z_MSC_CAPS_SeaIceVelocityX_Sfc_RLatLon0.03_PT032H.nc 2026-05-06 18:13 15M
20260506T12Z_MSC_CAPS_SeaIceVelocityY_Sfc_RLatLon0.03_PT032H.nc 2026-05-06 18:13 15M
20260506T12Z_MSC_CAPS_SeaIceVolume_Sfc_RLatLon0.03_PT032H.nc 2026-05-06 18:13 15M
20260506T12Z_MSC_CAPS_SeaSurfaceHeight_Sfc_RLatLon0.03_PT032H.nc 2026-05-06 18:13 16M
20260506T12Z_MSC_CAPS_SeaWaterSalinity_DBS-0.5m_RLatLon0.03_PT032H.nc 2026-05-06 18:13 16M
20260506T12Z_MSC_CAPS_SeaWaterSalinity_DBS-all_RLatLon0.03_PT032H.nc 2026-05-06 18:13 107M
20260506T12Z_MSC_CAPS_SeaWaterTemp_DBS-0.5m_RLatLon0.03_PT032H.nc 2026-05-06 18:13 15M
20260506T12Z_MSC_CAPS_SeaWaterTemp_DBS-all_RLatLon0.03_PT032H.nc 2026-05-06 18:13 88M
20260506T12Z_MSC_CAPS_SeaWaterVelocityX_DBS-0.5m_RLatLon0.03_PT032H.nc 2026-05-06 18:13 17M
20260506T12Z_MSC_CAPS_SeaWaterVelocityX_DBS-all_RLatLon0.03_PT032H.nc 2026-05-06 18:13 207M
20260506T12Z_MSC_CAPS_SeaWaterVelocityY_DBS-0.5m_RLatLon0.03_PT032H.nc 2026-05-06 18:13 18M
20260506T12Z_MSC_CAPS_SeaWaterVelocityY_DBS-all_RLatLon0.03_PT032H.nc 2026-05-06 18:13 217M
20260506T12Z_MSC_CAPS_SensibleHeatNetFlux_Sfc_RLatLon0.03_PT032H.grib2 2026-05-06 18:21 2.2M
20260506T12Z_MSC_CAPS_ShowalterIndex_IsbL-0500_RLatLon0.03_PT032H.grib2 2026-05-06 18:21 4.3M
20260506T12Z_MSC_CAPS_Snow-Accum_Sfc_RLatLon0.03_PT032H.grib2 2026-05-06 18:21 4.0M
20260506T12Z_MSC_CAPS_SnowDensity_Sfc_RLatLon0.03_PT032H.grib2 2026-05-06 18:21 1.3M
20260506T12Z_MSC_CAPS_SnowDepthWaterEquivalent_Sfc_RLatLon0.03_PT032H.grib2 2026-05-06 18:21 646K
20260506T12Z_MSC_CAPS_SnowDepth_Sfc_RLatLon0.03_PT032H.grib2 2026-05-06 18:21 1.1M
20260506T12Z_MSC_CAPS_SoilTemp_DBS-0to10cm_RLatLon0.03_PT032H.grib2 2026-05-06 18:21 1.6M
20260506T12Z_MSC_CAPS_SoilTemp_Sfc_RLatLon0.03_PT032H.grib2 2026-05-06 18:21 1.9M
20260506T12Z_MSC_CAPS_SoilVolumetricIceContent_Sfc_RLatLon0.03_PT032H.grib2 2026-05-06 18:21 1.3M
20260506T12Z_MSC_CAPS_SoilVolumetricWaterContent_DBS-0to10cm_RLatLon0.03_PT032H.grib2 2026-05-06 18:21 1.3M
20260506T12Z_MSC_CAPS_SoilVolumetricWaterContent_DBS-0to1cm_RLatLon0.03_PT032H.grib2 2026-05-06 18:21 1.8M
20260506T12Z_MSC_CAPS_SpecificHumidity_AGL-120m_RLatLon0.03_PT032H.grib2 2026-05-06 18:21 1.5M
20260506T12Z_MSC_CAPS_SpecificHumidity_AGL-2m_RLatLon0.03_PT032H.grib2 2026-05-06 18:21 1.8M
20260506T12Z_MSC_CAPS_SpecificHumidity_AGL-40m_RLatLon0.03_PT032H.grib2 2026-05-06 18:21 1.6M
20260506T12Z_MSC_CAPS_SpecificHumidity_AGL-80m_RLatLon0.03_PT032H.grib2 2026-05-06 18:21 1.6M
20260506T12Z_MSC_CAPS_SpecificHumidity_IsbL-0050_RLatLon0.03_PT032H.grib2 2026-05-06 18:21 917K
20260506T12Z_MSC_CAPS_SpecificHumidity_IsbL-0100_RLatLon0.03_PT032H.grib2 2026-05-06 18:21 971K
20260506T12Z_MSC_CAPS_SpecificHumidity_IsbL-0150_RLatLon0.03_PT032H.grib2 2026-05-06 18:21 873K
20260506T12Z_MSC_CAPS_SpecificHumidity_IsbL-0175_RLatLon0.03_PT032H.grib2 2026-05-06 18:21 1.0M
20260506T12Z_MSC_CAPS_SpecificHumidity_IsbL-0200_RLatLon0.03_PT032H.grib2 2026-05-06 18:21 1.0M
20260506T12Z_MSC_CAPS_SpecificHumidity_IsbL-0225_RLatLon0.03_PT032H.grib2 2026-05-06 18:21 863K
20260506T12Z_MSC_CAPS_SpecificHumidity_IsbL-0250_RLatLon0.03_PT032H.grib2 2026-05-06 18:21 1.1M
20260506T12Z_MSC_CAPS_SpecificHumidity_IsbL-0275_RLatLon0.03_PT032H.grib2 2026-05-06 18:21 1.1M
20260506T12Z_MSC_CAPS_SpecificHumidity_IsbL-0300_RLatLon0.03_PT032H.grib2 2026-05-06 18:21 1.1M
20260506T12Z_MSC_CAPS_SpecificHumidity_IsbL-0350_RLatLon0.03_PT032H.grib2 2026-05-06 18:21 1.0M
20260506T12Z_MSC_CAPS_SpecificHumidity_IsbL-0400_RLatLon0.03_PT032H.grib2 2026-05-06 18:21 1.3M
20260506T12Z_MSC_CAPS_SpecificHumidity_IsbL-0450_RLatLon0.03_PT032H.grib2 2026-05-06 18:21 1.2M
20260506T12Z_MSC_CAPS_SpecificHumidity_IsbL-0500_RLatLon0.03_PT032H.grib2 2026-05-06 18:21 1.1M
20260506T12Z_MSC_CAPS_SpecificHumidity_IsbL-0550_RLatLon0.03_PT032H.grib2 2026-05-06 18:21 1.3M
20260506T12Z_MSC_CAPS_SpecificHumidity_IsbL-0600_RLatLon0.03_PT032H.grib2 2026-05-06 18:21 1.4M
20260506T12Z_MSC_CAPS_SpecificHumidity_IsbL-0650_RLatLon0.03_PT032H.grib2 2026-05-06 18:21 1.2M
20260506T12Z_MSC_CAPS_SpecificHumidity_IsbL-0700_RLatLon0.03_PT032H.grib2 2026-05-06 18:21 1.3M
20260506T12Z_MSC_CAPS_SpecificHumidity_IsbL-0750_RLatLon0.03_PT032H.grib2 2026-05-06 18:21 1.5M
20260506T12Z_MSC_CAPS_SpecificHumidity_IsbL-0800_RLatLon0.03_PT032H.grib2 2026-05-06 18:21 1.7M
20260506T12Z_MSC_CAPS_SpecificHumidity_IsbL-0850_RLatLon0.03_PT032H.grib2 2026-05-06 18:21 1.8M
20260506T12Z_MSC_CAPS_SpecificHumidity_IsbL-0875_RLatLon0.03_PT032H.grib2 2026-05-06 18:21 1.9M
20260506T12Z_MSC_CAPS_SpecificHumidity_IsbL-0900_RLatLon0.03_PT032H.grib2 2026-05-06 18:21 1.6M
20260506T12Z_MSC_CAPS_SpecificHumidity_IsbL-0925_RLatLon0.03_PT032H.grib2 2026-05-06 18:21 1.6M
20260506T12Z_MSC_CAPS_SpecificHumidity_IsbL-0950_RLatLon0.03_PT032H.grib2 2026-05-06 18:21 1.7M
20260506T12Z_MSC_CAPS_SpecificHumidity_IsbL-0970_RLatLon0.03_PT032H.grib2 2026-05-06 18:21 1.7M
20260506T12Z_MSC_CAPS_SpecificHumidity_IsbL-0985_RLatLon0.03_PT032H.grib2 2026-05-06 18:21 1.8M
20260506T12Z_MSC_CAPS_SpecificHumidity_IsbL-1000_RLatLon0.03_PT032H.grib2 2026-05-06 18:21 1.8M
20260506T12Z_MSC_CAPS_SpecificHumidity_IsbL-1015_RLatLon0.03_PT032H.grib2 2026-05-06 18:21 1.8M
20260506T12Z_MSC_CAPS_SpecificHumidity_Sfc_RLatLon0.03_PT032H.grib2 2026-05-06 18:21 2.1M
20260506T12Z_MSC_CAPS_StormRelativeHelicity_Sfc_RLatLon0.03_PT032H.grib2 2026-05-06 18:21 3.1M
20260506T12Z_MSC_CAPS_Thickness_IsbL-1000to0500_RLatLon0.03_PT032H.grib2 2026-05-06 18:21 411K
20260506T12Z_MSC_CAPS_TotalCloudCover_Sfc_RLatLon0.03_PT032H.grib2 2026-05-06 18:21 3.9M
20260506T12Z_MSC_CAPS_TurboclineDepth_Sfc_RLatLon0.03_PT032H.nc 2026-05-06 18:13 16M
20260506T12Z_MSC_CAPS_UpwardLongwaveRadiationFlux_NTAtm_RLatLon0.03_PT032H.grib2 2026-05-06 18:21 3.0M
20260506T12Z_MSC_CAPS_UpwardShortwaveRadiationFlux_NTAtm_RLatLon0.03_PT032H.grib2 2026-05-06 18:21 2.8M
20260506T12Z_MSC_CAPS_VerticalVelocity_IsbL-0250_RLatLon0.03_PT032H.grib2 2026-05-06 18:21 912K
20260506T12Z_MSC_CAPS_VerticalVelocity_IsbL-0500_RLatLon0.03_PT032H.grib2 2026-05-06 18:21 1.2M
20260506T12Z_MSC_CAPS_VerticalVelocity_IsbL-0700_RLatLon0.03_PT032H.grib2 2026-05-06 18:21 942K
20260506T12Z_MSC_CAPS_VerticalVelocity_IsbL-0850_RLatLon0.03_PT032H.grib2 2026-05-06 18:21 1.4M
20260506T12Z_MSC_CAPS_VerticalVelocity_IsbL-1000_RLatLon0.03_PT032H.grib2 2026-05-06 18:21 1.3M
20260506T12Z_MSC_CAPS_WindDir_AGL-10m_RLatLon0.03_PT032H.grib2 2026-05-06 18:21 2.5M
20260506T12Z_MSC_CAPS_WindDir_AGL-120m_RLatLon0.03_PT032H.grib2 2026-05-06 18:21 1.3M
20260506T12Z_MSC_CAPS_WindDir_AGL-40m_RLatLon0.03_PT032H.grib2 2026-05-06 18:21 1.5M
20260506T12Z_MSC_CAPS_WindDir_AGL-80m_RLatLon0.03_PT032H.grib2 2026-05-06 18:21 1.4M
20260506T12Z_MSC_CAPS_WindDir_IsbL-0050_RLatLon0.03_PT032H.grib2 2026-05-06 18:21 1.1M
20260506T12Z_MSC_CAPS_WindDir_IsbL-0100_RLatLon0.03_PT032H.grib2 2026-05-06 18:21 1.1M
20260506T12Z_MSC_CAPS_WindDir_IsbL-0150_RLatLon0.03_PT032H.grib2 2026-05-06 18:21 1.1M
20260506T12Z_MSC_CAPS_WindDir_IsbL-0175_RLatLon0.03_PT032H.grib2 2026-05-06 18:21 1.1M
20260506T12Z_MSC_CAPS_WindDir_IsbL-0200_RLatLon0.03_PT032H.grib2 2026-05-06 18:21 1.2M
20260506T12Z_MSC_CAPS_WindDir_IsbL-0225_RLatLon0.03_PT032H.grib2 2026-05-06 18:21 1.1M
20260506T12Z_MSC_CAPS_WindDir_IsbL-0250_RLatLon0.03_PT032H.grib2 2026-05-06 18:21 1.1M
20260506T12Z_MSC_CAPS_WindDir_IsbL-0275_RLatLon0.03_PT032H.grib2 2026-05-06 18:21 1.1M
20260506T12Z_MSC_CAPS_WindDir_IsbL-0300_RLatLon0.03_PT032H.grib2 2026-05-06 18:21 1.1M
20260506T12Z_MSC_CAPS_WindDir_IsbL-0350_RLatLon0.03_PT032H.grib2 2026-05-06 18:21 1.1M
20260506T12Z_MSC_CAPS_WindDir_IsbL-0400_RLatLon0.03_PT032H.grib2 2026-05-06 18:21 1.2M
20260506T12Z_MSC_CAPS_WindDir_IsbL-0450_RLatLon0.03_PT032H.grib2 2026-05-06 18:21 1.2M
20260506T12Z_MSC_CAPS_WindDir_IsbL-0500_RLatLon0.03_PT032H.grib2 2026-05-06 18:21 1.2M
20260506T12Z_MSC_CAPS_WindDir_IsbL-0550_RLatLon0.03_PT032H.grib2 2026-05-06 18:21 1.2M
20260506T12Z_MSC_CAPS_WindDir_IsbL-0600_RLatLon0.03_PT032H.grib2 2026-05-06 18:21 1.3M
20260506T12Z_MSC_CAPS_WindDir_IsbL-0650_RLatLon0.03_PT032H.grib2 2026-05-06 18:21 1.4M
20260506T12Z_MSC_CAPS_WindDir_IsbL-0700_RLatLon0.03_PT032H.grib2 2026-05-06 18:21 1.5M
20260506T12Z_MSC_CAPS_WindDir_IsbL-0750_RLatLon0.03_PT032H.grib2 2026-05-06 18:21 1.6M
20260506T12Z_MSC_CAPS_WindDir_IsbL-0800_RLatLon0.03_PT032H.grib2 2026-05-06 18:21 1.8M
20260506T12Z_MSC_CAPS_WindDir_IsbL-0850_RLatLon0.03_PT032H.grib2 2026-05-06 18:21 1.9M
20260506T12Z_MSC_CAPS_WindDir_IsbL-0875_RLatLon0.03_PT032H.grib2 2026-05-06 18:21 1.9M
20260506T12Z_MSC_CAPS_WindDir_IsbL-0900_RLatLon0.03_PT032H.grib2 2026-05-06 18:21 2.0M
20260506T12Z_MSC_CAPS_WindDir_IsbL-0925_RLatLon0.03_PT032H.grib2 2026-05-06 18:21 2.1M
20260506T12Z_MSC_CAPS_WindDir_IsbL-0950_RLatLon0.03_PT032H.grib2 2026-05-06 18:21 2.1M
20260506T12Z_MSC_CAPS_WindDir_IsbL-0970_RLatLon0.03_PT032H.grib2 2026-05-06 18:21 2.2M
20260506T12Z_MSC_CAPS_WindDir_IsbL-0985_RLatLon0.03_PT032H.grib2 2026-05-06 18:21 2.3M
20260506T12Z_MSC_CAPS_WindDir_IsbL-1000_RLatLon0.03_PT032H.grib2 2026-05-06 18:21 2.4M
20260506T12Z_MSC_CAPS_WindDir_IsbL-1015_RLatLon0.03_PT032H.grib2 2026-05-06 18:21 2.4M
20260506T12Z_MSC_CAPS_WindGust-Max_AGL-10m_RLatLon0.03_PT032H.grib2 2026-05-06 18:21 2.5M
20260506T12Z_MSC_CAPS_WindGust-Min_AGL-10m_RLatLon0.03_PT032H.grib2 2026-05-06 18:21 2.4M
20260506T12Z_MSC_CAPS_WindGust_AGL-10m_RLatLon0.03_PT032H.grib2 2026-05-06 18:21 2.5M
20260506T12Z_MSC_CAPS_WindSpeed_AGL-10m_RLatLon0.03_PT032H.grib2 2026-05-06 18:21 2.1M
20260506T12Z_MSC_CAPS_WindSpeed_AGL-120m_RLatLon0.03_PT032H.grib2 2026-05-06 18:21 1.1M
20260506T12Z_MSC_CAPS_WindSpeed_AGL-40m_RLatLon0.03_PT032H.grib2 2026-05-06 18:21 1.2M
20260506T12Z_MSC_CAPS_WindSpeed_AGL-80m_RLatLon0.03_PT032H.grib2 2026-05-06 18:21 1.1M
20260506T12Z_MSC_CAPS_WindSpeed_IsbL-0050_RLatLon0.03_PT032H.grib2 2026-05-06 18:21 940K
20260506T12Z_MSC_CAPS_WindSpeed_IsbL-0100_RLatLon0.03_PT032H.grib2 2026-05-06 18:21 1.3M
20260506T12Z_MSC_CAPS_WindSpeed_IsbL-0150_RLatLon0.03_PT032H.grib2 2026-05-06 18:21 1.0M
20260506T12Z_MSC_CAPS_WindSpeed_IsbL-0175_RLatLon0.03_PT032H.grib2 2026-05-06 18:21 858K
20260506T12Z_MSC_CAPS_WindSpeed_IsbL-0200_RLatLon0.03_PT032H.grib2 2026-05-06 18:21 1.0M
20260506T12Z_MSC_CAPS_WindSpeed_IsbL-0225_RLatLon0.03_PT032H.grib2 2026-05-06 18:21 1.0M
20260506T12Z_MSC_CAPS_WindSpeed_IsbL-0250_RLatLon0.03_PT032H.grib2 2026-05-06 18:21 1.0M
20260506T12Z_MSC_CAPS_WindSpeed_IsbL-0275_RLatLon0.03_PT032H.grib2 2026-05-06 18:21 1.0M
20260506T12Z_MSC_CAPS_WindSpeed_IsbL-0300_RLatLon0.03_PT032H.grib2 2026-05-06 18:21 1.0M
20260506T12Z_MSC_CAPS_WindSpeed_IsbL-0350_RLatLon0.03_PT032H.grib2 2026-05-06 18:21 1.0M
20260506T12Z_MSC_CAPS_WindSpeed_IsbL-0400_RLatLon0.03_PT032H.grib2 2026-05-06 18:21 1.3M
20260506T12Z_MSC_CAPS_WindSpeed_IsbL-0450_RLatLon0.03_PT032H.grib2 2026-05-06 18:21 1.3M
20260506T12Z_MSC_CAPS_WindSpeed_IsbL-0500_RLatLon0.03_PT032H.grib2 2026-05-06 18:21 1.4M
20260506T12Z_MSC_CAPS_WindSpeed_IsbL-0550_RLatLon0.03_PT032H.grib2 2026-05-06 18:21 1.4M
20260506T12Z_MSC_CAPS_WindSpeed_IsbL-0600_RLatLon0.03_PT032H.grib2 2026-05-06 18:21 1.4M
20260506T12Z_MSC_CAPS_WindSpeed_IsbL-0650_RLatLon0.03_PT032H.grib2 2026-05-06 18:21 1.4M
20260506T12Z_MSC_CAPS_WindSpeed_IsbL-0700_RLatLon0.03_PT032H.grib2 2026-05-06 18:21 1.5M
20260506T12Z_MSC_CAPS_WindSpeed_IsbL-0750_RLatLon0.03_PT032H.grib2 2026-05-06 18:21 1.5M
20260506T12Z_MSC_CAPS_WindSpeed_IsbL-0800_RLatLon0.03_PT032H.grib2 2026-05-06 18:21 1.7M
20260506T12Z_MSC_CAPS_WindSpeed_IsbL-0850_RLatLon0.03_PT032H.grib2 2026-05-06 18:21 1.7M
20260506T12Z_MSC_CAPS_WindSpeed_IsbL-0875_RLatLon0.03_PT032H.grib2 2026-05-06 18:21 1.8M
20260506T12Z_MSC_CAPS_WindSpeed_IsbL-0900_RLatLon0.03_PT032H.grib2 2026-05-06 18:21 1.8M
20260506T12Z_MSC_CAPS_WindSpeed_IsbL-0925_RLatLon0.03_PT032H.grib2 2026-05-06 18:21 1.9M
20260506T12Z_MSC_CAPS_WindSpeed_IsbL-0950_RLatLon0.03_PT032H.grib2 2026-05-06 18:21 1.9M
20260506T12Z_MSC_CAPS_WindSpeed_IsbL-0970_RLatLon0.03_PT032H.grib2 2026-05-06 18:21 2.0M
20260506T12Z_MSC_CAPS_WindSpeed_IsbL-0985_RLatLon0.03_PT032H.grib2 2026-05-06 18:21 2.0M
20260506T12Z_MSC_CAPS_WindSpeed_IsbL-1000_RLatLon0.03_PT032H.grib2 2026-05-06 18:21 2.0M
20260506T12Z_MSC_CAPS_WindSpeed_IsbL-1015_RLatLon0.03_PT032H.grib2 2026-05-06 18:21 2.0M
20260506T12Z_MSC_CAPS_WindU_AGL-10m_RLatLon0.03_PT032H.grib2 2026-05-06 18:21 2.0M
20260506T12Z_MSC_CAPS_WindU_AGL-120m_RLatLon0.03_PT032H.grib2 2026-05-06 18:21 1.2M
20260506T12Z_MSC_CAPS_WindU_AGL-40m_RLatLon0.03_PT032H.grib2 2026-05-06 18:21 1.2M
20260506T12Z_MSC_CAPS_WindU_AGL-80m_RLatLon0.03_PT032H.grib2 2026-05-06 18:21 1.2M
20260506T12Z_MSC_CAPS_WindU_IsbL-0050_RLatLon0.03_PT032H.grib2 2026-05-06 18:21 935K
20260506T12Z_MSC_CAPS_WindU_IsbL-0100_RLatLon0.03_PT032H.grib2 2026-05-06 18:21 954K
20260506T12Z_MSC_CAPS_WindU_IsbL-0150_RLatLon0.03_PT032H.grib2 2026-05-06 18:21 924K
20260506T12Z_MSC_CAPS_WindU_IsbL-0175_RLatLon0.03_PT032H.grib2 2026-05-06 18:21 734K
20260506T12Z_MSC_CAPS_WindU_IsbL-0200_RLatLon0.03_PT032H.grib2 2026-05-06 18:21 883K
20260506T12Z_MSC_CAPS_WindU_IsbL-0225_RLatLon0.03_PT032H.grib2 2026-05-06 18:21 900K
20260506T12Z_MSC_CAPS_WindU_IsbL-0250_RLatLon0.03_PT032H.grib2 2026-05-06 18:21 916K
20260506T12Z_MSC_CAPS_WindU_IsbL-0275_RLatLon0.03_PT032H.grib2 2026-05-06 18:21 920K
20260506T12Z_MSC_CAPS_WindU_IsbL-0300_RLatLon0.03_PT032H.grib2 2026-05-06 18:21 716K
20260506T12Z_MSC_CAPS_WindU_IsbL-0350_RLatLon0.03_PT032H.grib2 2026-05-06 18:21 728K
20260506T12Z_MSC_CAPS_WindU_IsbL-0400_RLatLon0.03_PT032H.grib2 2026-05-06 18:21 952K
20260506T12Z_MSC_CAPS_WindU_IsbL-0450_RLatLon0.03_PT032H.grib2 2026-05-06 18:21 972K
20260506T12Z_MSC_CAPS_WindU_IsbL-0500_RLatLon0.03_PT032H.grib2 2026-05-06 18:21 1.0M
20260506T12Z_MSC_CAPS_WindU_IsbL-0550_RLatLon0.03_PT032H.grib2 2026-05-06 18:21 914K
20260506T12Z_MSC_CAPS_WindU_IsbL-0600_RLatLon0.03_PT032H.grib2 2026-05-06 18:21 940K
20260506T12Z_MSC_CAPS_WindU_IsbL-0650_RLatLon0.03_PT032H.grib2 2026-05-06 18:21 1.2M
20260506T12Z_MSC_CAPS_WindU_IsbL-0700_RLatLon0.03_PT032H.grib2 2026-05-06 18:21 1.3M
20260506T12Z_MSC_CAPS_WindU_IsbL-0750_RLatLon0.03_PT032H.grib2 2026-05-06 18:21 1.4M
20260506T12Z_MSC_CAPS_WindU_IsbL-0800_RLatLon0.03_PT032H.grib2 2026-05-06 18:21 1.4M
20260506T12Z_MSC_CAPS_WindU_IsbL-0850_RLatLon0.03_PT032H.grib2 2026-05-06 18:21 1.2M
20260506T12Z_MSC_CAPS_WindU_IsbL-0875_RLatLon0.03_PT032H.grib2 2026-05-06 18:21 1.2M
20260506T12Z_MSC_CAPS_WindU_IsbL-0900_RLatLon0.03_PT032H.grib2 2026-05-06 18:21 1.3M
20260506T12Z_MSC_CAPS_WindU_IsbL-0925_RLatLon0.03_PT032H.grib2 2026-05-06 18:21 1.3M
20260506T12Z_MSC_CAPS_WindU_IsbL-0950_RLatLon0.03_PT032H.grib2 2026-05-06 18:21 1.4M
20260506T12Z_MSC_CAPS_WindU_IsbL-0970_RLatLon0.03_PT032H.grib2 2026-05-06 18:21 1.4M
20260506T12Z_MSC_CAPS_WindU_IsbL-0985_RLatLon0.03_PT032H.grib2 2026-05-06 18:21 1.4M
20260506T12Z_MSC_CAPS_WindU_IsbL-1000_RLatLon0.03_PT032H.grib2 2026-05-06 18:21 1.8M
20260506T12Z_MSC_CAPS_WindU_IsbL-1015_RLatLon0.03_PT032H.grib2 2026-05-06 18:21 2.0M
20260506T12Z_MSC_CAPS_WindV_AGL-10m_RLatLon0.03_PT032H.grib2 2026-05-06 18:21 1.9M
20260506T12Z_MSC_CAPS_WindV_AGL-120m_RLatLon0.03_PT032H.grib2 2026-05-06 18:21 1.1M
20260506T12Z_MSC_CAPS_WindV_AGL-40m_RLatLon0.03_PT032H.grib2 2026-05-06 18:21 1.2M
20260506T12Z_MSC_CAPS_WindV_AGL-80m_RLatLon0.03_PT032H.grib2 2026-05-06 18:21 1.1M
20260506T12Z_MSC_CAPS_WindV_IsbL-0050_RLatLon0.03_PT032H.grib2 2026-05-06 18:21 764K
20260506T12Z_MSC_CAPS_WindV_IsbL-0100_RLatLon0.03_PT032H.grib2 2026-05-06 18:21 782K
20260506T12Z_MSC_CAPS_WindV_IsbL-0150_RLatLon0.03_PT032H.grib2 2026-05-06 18:21 911K
20260506T12Z_MSC_CAPS_WindV_IsbL-0175_RLatLon0.03_PT032H.grib2 2026-05-06 18:21 847K
20260506T12Z_MSC_CAPS_WindV_IsbL-0200_RLatLon0.03_PT032H.grib2 2026-05-06 18:21 661K
20260506T12Z_MSC_CAPS_WindV_IsbL-0225_RLatLon0.03_PT032H.grib2 2026-05-06 18:21 681K
20260506T12Z_MSC_CAPS_WindV_IsbL-0250_RLatLon0.03_PT032H.grib2 2026-05-06 18:21 698K
20260506T12Z_MSC_CAPS_WindV_IsbL-0275_RLatLon0.03_PT032H.grib2 2026-05-06 18:21 705K
20260506T12Z_MSC_CAPS_WindV_IsbL-0300_RLatLon0.03_PT032H.grib2 2026-05-06 18:21 710K
20260506T12Z_MSC_CAPS_WindV_IsbL-0350_RLatLon0.03_PT032H.grib2 2026-05-06 18:21 936K
20260506T12Z_MSC_CAPS_WindV_IsbL-0400_RLatLon0.03_PT032H.grib2 2026-05-06 18:21 947K
20260506T12Z_MSC_CAPS_WindV_IsbL-0450_RLatLon0.03_PT032H.grib2 2026-05-06 18:21 967K
20260506T12Z_MSC_CAPS_WindV_IsbL-0500_RLatLon0.03_PT032H.grib2 2026-05-06 18:21 876K
20260506T12Z_MSC_CAPS_WindV_IsbL-0550_RLatLon0.03_PT032H.grib2 2026-05-06 18:21 901K
20260506T12Z_MSC_CAPS_WindV_IsbL-0600_RLatLon0.03_PT032H.grib2 2026-05-06 18:21 924K
20260506T12Z_MSC_CAPS_WindV_IsbL-0650_RLatLon0.03_PT032H.grib2 2026-05-06 18:21 955K
20260506T12Z_MSC_CAPS_WindV_IsbL-0700_RLatLon0.03_PT032H.grib2 2026-05-06 18:21 1.0M
20260506T12Z_MSC_CAPS_WindV_IsbL-0750_RLatLon0.03_PT032H.grib2 2026-05-06 18:21 1.1M
20260506T12Z_MSC_CAPS_WindV_IsbL-0800_RLatLon0.03_PT032H.grib2 2026-05-06 18:21 1.1M
20260506T12Z_MSC_CAPS_WindV_IsbL-0850_RLatLon0.03_PT032H.grib2 2026-05-06 18:21 1.2M
20260506T12Z_MSC_CAPS_WindV_IsbL-0875_RLatLon0.03_PT032H.grib2 2026-05-06 18:21 1.2M
20260506T12Z_MSC_CAPS_WindV_IsbL-0900_RLatLon0.03_PT032H.grib2 2026-05-06 18:21 1.3M
20260506T12Z_MSC_CAPS_WindV_IsbL-0925_RLatLon0.03_PT032H.grib2 2026-05-06 18:21 1.3M
20260506T12Z_MSC_CAPS_WindV_IsbL-0950_RLatLon0.03_PT032H.grib2 2026-05-06 18:21 1.7M
20260506T12Z_MSC_CAPS_WindV_IsbL-0970_RLatLon0.03_PT032H.grib2 2026-05-06 18:21 1.7M
20260506T12Z_MSC_CAPS_WindV_IsbL-0985_RLatLon0.03_PT032H.grib2 2026-05-06 18:21 1.8M
20260506T12Z_MSC_CAPS_WindV_IsbL-1000_RLatLon0.03_PT032H.grib2 2026-05-06 18:21 2.0M
20260506T12Z_MSC_CAPS_WindV_IsbL-1015_RLatLon0.03_PT032H.grib2 2026-05-06 18:21 1.9M